Flag for France Weather past 2 weeks in Ajaccio, Corsica, France

Now
55 °F

Scattered clouds.


Feels Like: 53 °F
Forecast: 40 / 53 °F
Wind: 9 mph from West

Location: Ajaccio Airport

Current Time: Jan 25, 2015 at 1:28:53 PM

Latest Report: Jan 25, 2015 at 1:00 PM


Visibility: N/A

Pressure: 29.89 "Hg

Humidity: 44%

Dew point: 34 °F

Location of AjaccioLocation

Historic Weather in Ajaccio — Graph

°F

Ajaccio temperature yesterday

Maximum temperature yesterday: 59 °F (at 11:30 AM)
Minimum temperature yesterday: 37 °F (at 5:30 AM)
Average temperature yesterday: 47 °F

Past Weeks' High & Low Weather Summary

 TemperatureHumidityPressure
High68 °F (Jan 16, 2:00 PM)100% (Jan 10, 9:30 PM)30.48 "Hg (Jan 10, 9:30 PM)
Low34 °F (Jan 13, 8:00 AM)34% (Jan 25, 12:00 PM)29.65 "Hg (Jan 23, 1:00 AM)
Average49 °F78%30.00 "Hg
* Reported Jan 10 12:00 Noon — Jan 25 12:30 PM, Ajaccio, Weather by CustomWeather, © 2014

Note: Actual official high and low records may vary slightly from our data, if they occured in-between our weather recording intervals... More about our weather records

Advertising

Ajaccio weather history for previous 24 hours

 ConditionsComfort  
Time TempWeatherWind HumidityBarometerVisibility
12:30 PM
Jan 25
57 °FScattered clouds.10 mph36%29.89 "HgN/A
12:00 PM59 °FScattered clouds.10 mph34%29.89 "HgN/A
11:30 AM57 °FScattered clouds.5 mph44%29.89 "HgN/A
11:00 AM55 °FScattered clouds.3 mph51%29.89 "HgN/A
10:30 AM52 °FScattered clouds.1 mph62%29.89 "HgN/A
10:00 AM46 °FScattered clouds.2 mph76%29.89 "HgN/A
9:30 AM41 °FScattered clouds.6 mph81%29.86 "HgN/A
9:00 AM37 °FScattered clouds.5 mph87%29.86 "HgN/A
8:30 AM37 °FScattered clouds.7 mph87%29.86 "HgN/A
8:00 AM36 °FScattered clouds.3 mph87%29.86 "HgN/A
7:30 AM39 °FPassing clouds.6 mph81%29.83 "HgN/A
7:00 AM39 °FPassing clouds.5 mph81%29.83 "HgN/A
6:30 AM37 °FPassing clouds.5 mph87%29.83 "HgN/A
6:00 AM37 °FPassing clouds.5 mph87%29.80 "HgN/A
5:30 AM39 °FClear.3 mph81%29.80 "HgN/A
5:00 AM39 °FClear.No wind87%29.80 "HgN/A
4:30 AM41 °FClear.2 mph81%29.77 "HgN/A
4:00 AM43 °FClear.2 mph76%29.77 "HgN/A
3:30 AM45 °FPassing clouds.3 mph76%29.77 "HgN/A
3:00 AM45 °FOvercast.5 mph81%29.77 "HgN/A
2:30 AM46 °FOvercast.5 mph76%29.77 "HgN/A
2:00 AM45 °FMostly cloudy.5 mph81%29.77 "HgN/A
1:30 AM41 °FPassing clouds.7 mph87%29.77 "HgN/A
1:00 AM39 °FClear.7 mph87%29.77 "HgN/A
12:30 AM41 °FClear.6 mph87%29.77 "HgN/A
12:00 AM41 °FPassing clouds.7 mph87%29.77 "HgN/A
11:30 PM
Jan 24
41 °FClear.7 mph93%29.77 "HgN/A
11:00 PM41 °FClear.7 mph93%29.77 "HgN/A
10:30 PM45 °FClear.5 mph81%29.77 "HgN/A
10:00 PM43 °FClear.6 mph87%29.77 "HgN/A
9:30 PM45 °FClear.6 mph81%29.77 "HgN/A
9:00 PM45 °FPassing clouds.6 mph81%29.77 "HgN/A
8:30 PM45 °FPassing clouds.6 mph87%29.77 "HgN/A
8:00 PM48 °FPassing clouds.6 mph82%29.77 "HgN/A
7:30 PM48 °FPassing clouds.6 mph82%29.77 "HgN/A
7:00 PM52 °FPassing clouds.3 mph67%29.77 "HgN/A
6:30 PM54 °FClear.3 mph67%29.77 "HgN/A
5:30 PM55 °FPassing clouds.3 mph63%29.77 "HgN/A
5:00 PM55 °FScattered clouds.9 mph67%29.77 "HgN/A
4:30 PM57 °FScattered clouds.15 mph63%29.77 "HgN/A
4:00 PM57 °FScattered clouds.15 mph63%29.77 "HgN/A
3:30 PM59 °FScattered clouds.13 mph55%29.77 "HgN/A
3:00 PM59 °FScattered clouds.16 mph55%29.80 "HgN/A
2:30 PM59 °FScattered clouds.14 mph59%29.80 "HgN/A
2:00 PM59 °FScattered clouds.9 mph59%29.80 "HgN/A
1:30 PM59 °FScattered clouds.6 mph55%29.80 "HgN/A
1:00 PM59 °FScattered clouds.8 mph55%29.83 "HgN/A
Weather by CustomWeather, © 2014

See weather overviewHow to use our weather pages